Normandy Observed Data For Previous 48 Hours

Caption
Day and Hour Reservoir Elevation (behind dam)* Tailwater Elevation (below dam)* Average Hourly Discharge*
10/16/2018 1 AM CDT 873.11 789.89 159
10/16/2018 2 AM CDT 873.11 789.89 159
10/16/2018 3 AM CDT 873.09 789.89 159
10/16/2018 4 AM CDT 873.10 789.89 159
10/16/2018 5 AM CDT 873.11 789.89 159
10/16/2018 6 AM CDT 873.09 789.90 159
10/16/2018 7 AM CDT 873.08 789.89 159
10/16/2018 8 AM CDT 873.09 789.89 159
10/16/2018 9 AM CDT 873.09 789.94 159
10/16/2018 10 AM CDT 873.08 789.98 159
10/16/2018 11 AM CDT 873.08 789.99 159
10/16/2018 12 PM CDT 873.07 789.98 159
10/16/2018 1 PM CDT 873.07 789.99 159
10/16/2018 2 PM CDT 873.08 789.98 159
10/16/2018 3 PM CDT 873.06 789.99 159
10/16/2018 4 PM CDT 873.06 789.99 159
10/16/2018 5 PM CDT 873.07 789.99 159
10/16/2018 6 PM CDT 873.06 789.99 159
10/16/2018 7 PM CDT 873.06 789.99 159
10/16/2018 8 PM CDT 873.08 789.99 159
10/16/2018 9 PM CDT 873.06 789.99 159
10/16/2018 10 PM CDT 873.06 789.99 159
10/16/2018 11 PM CDT 873.06 789.99 159
10/17/2018 12 AM CDT 873.05 789.99 159
10/17/2018 1 AM CDT 873.05 789.99 159
10/17/2018 2 AM CDT 873.05 789.99 159
10/17/2018 3 AM CDT 873.05 789.99 159
10/17/2018 4 AM CDT 873.06 789.99 159
10/17/2018 5 AM CDT 873.04 789.87 159
10/17/2018 6 AM CDT 873.03 789.87 159
10/17/2018 7 AM CDT 873.04 789.88 159
10/17/2018 8 AM CDT 873.03 789.87 159
10/17/2018 9 AM CDT 873.03 789.87 159
10/17/2018 10 AM CDT 873.03 789.88 159
10/17/2018 11 AM CDT 873.02 789.88 159
10/17/2018 12 PM CDT 873.02 789.88 159
10/17/2018 1 PM CDT 873.02 789.88 159
10/17/2018 2 PM CDT 873.01 789.88 159
10/17/2018 3 PM CDT 873.01 789.88 159
10/17/2018 4 PM CDT 873.00 789.88 159
10/17/2018 5 PM CDT 873.00 789.88 159
10/17/2018 6 PM CDT 873.00 789.87 159
10/17/2018 7 PM CDT 872.99 789.88 159
10/17/2018 8 PM CDT 872.99 789.88 159
10/17/2018 9 PM CDT 872.99 789.88 159
10/17/2018 10 PM CDT 872.98 789.87 159
10/17/2018 11 PM CDT 872.99 789.88 159
10/18/2018 12 AM CDT 872.98 789.87 159
10/18/2018 1 AM CDT 872.98 789.87 159
10/18/2018 2 AM CDT 872.97 789.88 159
10/18/2018 3 AM CDT 872.97 789.88 159
10/18/2018 4 AM CDT 872.96 789.88 159
10/18/2018 5 AM CDT 872.96 789.87 159
10/18/2018 6 AM CDT 872.96 789.87 159
10/18/2018 7 AM CDT 872.96 789.87 159
10/18/2018 8 AM CDT 872.95 789.92 159
10/18/2018 9 AM CDT 872.94 790.26 159
10/18/2018 10 AM CDT 872.94 790.18 290
10/18/2018 11 AM CDT 872.94 790.17 235
10/18/2018 12 PM CDT 872.93 789.91 235
10/18/2018 1 PM CDT 872.93 789.89 178
10/18/2018 2 PM CDT 872.93 789.89 178

Elevations are in feet above sea level. Discharges are in cubic feet per second and are reported at the end of the hour.